﻿_id,日時,平均風速(m/s),平均風向,最大瞬間風速(m/s),最大風速時風向,気温(℃),湿度(%),10分間移動積算雨量(mm),1時間移動積算雨量(mm),日雨量(mm),累計雨量(mm)
1,2023-07-10T00:00:00,0.5,東北東,1,東,24.6,100,0,0,32,64
2,2023-07-10T00:01:00,0.5,東北東,1,東,24.5,100,0,0,0,64
3,2023-07-10T00:02:00,0.4,北東,1,東,24.5,100,0,0,0,64
4,2023-07-10T00:03:00,0.3,北東,0.9,東,24.5,100,0,0,0,64
5,2023-07-10T00:04:00,0.3,北北東,0.9,東,24.4,100,0,0,0,64
6,2023-07-10T00:05:00,0.2,静穏,0.6,北西,24.5,100,0,0,0,64
7,2023-07-10T00:06:00,0.2,静穏,0.6,北西,24.5,100,0,0,0,64
8,2023-07-10T00:07:00,0.2,静穏,0.6,北西,24.5,100,0,0,0,64
9,2023-07-10T00:08:00,0.2,静穏,0.6,北西,24.4,100,0,0,0,64
10,2023-07-10T00:09:00,0.2,静穏,0.6,北西,24.4,100,0,0,0,64
11,2023-07-10T00:10:00,0.2,静穏,0.6,北西,24.4,100,0,0,0,64
12,2023-07-10T00:11:00,0.2,静穏,0.9,東南東,24.3,100,0,0,0,64
13,2023-07-10T00:12:00,0.3,北,0.9,東南東,24.3,100,0,0,0,64
14,2023-07-10T00:13:00,0.3,北北東,1,東,24.3,100,0,0,0,64
15,2023-07-10T00:14:00,0.4,北東,1,東,24.3,100,0,0,0,64
16,2023-07-10T00:15:00,0.5,東北東,2.2,東,24.4,100,0,0,0,64
17,2023-07-10T00:16:00,0.6,東,2.3,東,24.4,100,0,0,0,64
18,2023-07-10T00:17:00,0.8,東,2.3,東,24.4,100,0,0,0,64
19,2023-07-10T00:18:00,0.9,東,2.3,東,24.4,100,0,0,0,64
20,2023-07-10T00:19:00,1.1,東,2.3,東,24.3,100,0,0,0,64
21,2023-07-10T00:20:00,1.2,東,2.5,東南東,24.3,100,0,0,0,64
22,2023-07-10T00:21:00,1.2,東南東,2.5,東南東,24.3,100,0,0,0,64
23,2023-07-10T00:22:00,1.3,東南東,2.5,東南東,24.4,100,0,0,0,64
24,2023-07-10T00:23:00,1.4,東南東,2.5,東南東,24.4,100,0,0,0,64
25,2023-07-10T00:24:00,1.5,東南東,2.5,東南東,24.5,100,0,0,0,64
26,2023-07-10T00:25:00,1.5,東南東,2.5,東南東,24.5,100,0,0,0,64
27,2023-07-10T00:26:00,1.4,東南東,2.5,東南東,24.6,100,0,0,0,64
28,2023-07-10T00:27:00,1.3,東南東,2.5,東南東,24.5,100,0,0,0,64
29,2023-07-10T00:28:00,1.1,東南東,2.5,東南東,24.5,100,0,0,0,64
30,2023-07-10T00:29:00,1.1,東南東,2.5,東南東,24.4,100,0,0,0,64
31,2023-07-10T00:30:00,1,東,2.2,東,24.4,100,0,0,0,64
32,2023-07-10T00:31:00,1,東,2.2,東,24.4,100,0,0,0,64
33,2023-07-10T00:32:00,0.9,東,2.2,東,24.3,100,0,0,0,64
34,2023-07-10T00:33:00,0.9,東,2.2,東,24.3,100,0,0,0,64
35,2023-07-10T00:34:00,0.8,東,1.6,東南東,24.3,100,0,0,0,64
36,2023-07-10T00:35:00,0.8,東,1.4,東北東,24.3,100,0,0,0,64
37,2023-07-10T00:36:00,0.9,東,1.4,東北東,24.4,100,0,0,0,64
38,2023-07-10T00:37:00,0.9,東,1.4,東北東,24.4,100,0,0,0,64
39,2023-07-10T00:38:00,1,東,1.4,東北東,24.4,100,0,0,0,64
40,2023-07-10T00:39:00,1,東,1.4,東北東,24.3,100,0,0,0,64
41,2023-07-10T00:40:00,0.9,東,1.4,東北東,24.4,100,0,0,0,64
42,2023-07-10T00:41:00,0.9,東,1.4,東北東,24.4,100,0,0,0,64
43,2023-07-10T00:42:00,1,東,1.4,東北東,24.5,100,0,0,0,64
44,2023-07-10T00:43:00,0.9,東,1.4,東北東,24.5,100,0,0,0,64
45,2023-07-10T00:44:00,0.9,東,1.4,東北東,24.3,100,0,0,0,64
46,2023-07-10T00:45:00,0.8,東南東,1.4,東北東,24.3,100,0,0,0,64
47,2023-07-10T00:46:00,0.7,東南東,1.2,南西,24.3,100,0,0,0,64
48,2023-07-10T00:47:00,0.7,南東,1.2,南西,24.4,100,0,0,0,64
49,2023-07-10T00:48:00,0.7,南南東,1.2,南西,24.5,100,0,0,0,64
50,2023-07-10T00:49:00,0.6,南,1.2,南西,24.5,100,0,0,0,64
51,2023-07-10T00:50:00,0.6,南南西,1.2,南西,24.4,100,0,0,0,64
52,2023-07-10T00:51:00,0.7,南南西,1.6,南,24.3,100,0,0,0,64
53,2023-07-10T00:52:00,0.7,南南西,1.6,南,24.3,100,0,0,0,64
54,2023-07-10T00:53:00,0.8,南南西,1.6,南,24.3,100,0,0,0,64
55,2023-07-10T00:54:00,0.8,南南西,1.6,南,24.3,100,0,0,0,64
56,2023-07-10T00:55:00,0.9,南南西,1.7,南,24.4,100,0,0,0,64
57,2023-07-10T00:56:00,0.9,南,1.7,南,24.4,100,0,0,0,64
58,2023-07-10T00:57:00,1,南,2.1,南南東,24.4,100,0,0,0,64
59,2023-07-10T00:58:00,1.1,南,2.1,南南東,24.3,100,0,0,0,64
60,2023-07-10T00:59:00,1.2,南,2.1,南南東,24.3,100,0,0,0,64
61,2023-07-10T01:00:00,1.2,南,2.1,南南東,24.3,100,0,0,0,64
62,2023-07-10T01:01:00,1.1,南南東,2.1,南南東,24.3,100,0,0,0,64
63,2023-07-10T01:02:00,1.1,南,2.1,南南東,24.3,100,0,0,0,64
64,2023-07-10T01:03:00,1.1,南,2.1,南南東,24.3,100,0,0,0,64
65,2023-07-10T01:04:00,1.2,南,2.9,南南西,24.4,100,0,0,0,64
66,2023-07-10T01:05:00,1.3,南,2.9,南南西,24.5,100,0,0,0,64
67,2023-07-10T01:06:00,1.4,南,2.9,南南西,24.6,100,0,0,0,64
68,2023-07-10T01:07:00,1.5,南,3.2,南南西,24.7,100,0,0,0,64
69,2023-07-10T01:08:00,1.7,南,3.4,南南西,24.8,100,0,0,0,64
70,2023-07-10T01:09:00,1.9,南,3.7,南南西,24.9,100,0,0,0,64
71,2023-07-10T01:10:00,2,南,3.7,南南西,25,100,0,0,0,64
72,2023-07-10T01:11:00,2.1,南南西,3.7,南南西,24.9,100,0,0,0,64
73,2023-07-10T01:12:00,2.3,南南西,3.7,南南西,24.9,100,0,0,0,64
74,2023-07-10T01:13:00,2.4,南南西,3.7,南南西,24.9,100,0,0,0,64
75,2023-07-10T01:14:00,2.4,南南西,3.7,南南西,24.9,100,0,0,0,64
76,2023-07-10T01:15:00,2.3,南南西,3.7,南南西,24.8,100,0,0,0,64
77,2023-07-10T01:16:00,2.4,南南西,3.7,南南西,24.8,100,0,0,0,64
78,2023-07-10T01:17:00,2.3,南南西,3.7,南南西,24.8,100,0,0,0,64
79,2023-07-10T01:18:00,2.2,南南西,3.7,南南西,24.8,100,0,0,0,64
80,2023-07-10T01:19:00,2.2,南南西,3.4,南南西,24.9,100,0,0,0,64
81,2023-07-10T01:20:00,2.2,南南西,3.3,南南西,24.9,100,0,0,0,64
82,2023-07-10T01:21:00,2.2,南南西,3.4,南南西,24.9,100,0,0,0,64
83,2023-07-10T01:22:00,2.2,南南西,3.7,南南西,25,100,0,0,0,64
84,2023-07-10T01:23:00,2.3,南南西,3.7,南南西,25.1,100,0,0,0,64
85,2023-07-10T01:24:00,2.4,南南西,3.9,南,25.1,100,0,0,0,64
86,2023-07-10T01:25:00,2.4,南南西,3.9,南,25.4,100,0,0,0,64
87,2023-07-10T01:26:00,2.4,南南西,3.9,南,25.4,100,0,0,0,64
88,2023-07-10T01:27:00,2.3,南南西,3.9,南,25.3,100,0,0,0,64
89,2023-07-10T01:28:00,2.3,南南西,3.9,南,25.4,100,0,0,0,64
90,2023-07-10T01:29:00,2.2,南南西,3.9,南,25.6,100,0,0,0,64
91,2023-07-10T01:30:00,2.2,南南西,3.9,南,25.5,100,0,0,0,64
92,2023-07-10T01:31:00,2.1,南南西,3.9,南,25.5,100,0,0,0,64
93,2023-07-10T01:32:00,1.9,南南西,3.9,南,25.4,100,0,0,0,64
94,2023-07-10T01:33:00,1.7,南南西,3.9,南,25.2,100,0,0,0,64
95,2023-07-10T01:34:00,1.7,南南西,3.4,南,25.1,100,0,0,0,64
96,2023-07-10T01:35:00,1.6,南南西,3.4,南,25.3,100,0,0,0,64
97,2023-07-10T01:36:00,1.6,南南西,3.4,南,25.3,100,0,0,0,64
98,2023-07-10T01:37:00,1.7,南南西,3.4,南,25.1,100,0,0,0,64
99,2023-07-10T01:38:00,1.6,南南西,3.4,南,25,100,0,0,0,64
100,2023-07-10T01:39:00,1.6,南南西,2.8,南南西,25,100,0,0,0,64
101,2023-07-10T01:40:00,1.6,南南西,2.8,南南西,25,100,0,0,0,64
102,2023-07-10T01:41:00,1.6,南南西,2.8,南南西,24.9,100,0,0,0,64
103,2023-07-10T01:42:00,1.6,南南西,2.8,南南西,24.9,100,0,0,0,64
104,2023-07-10T01:43:00,1.6,南南西,2.8,南南西,24.8,100,0,0,0,64
105,2023-07-10T01:44:00,1.6,南南西,2.8,南南西,24.8,100,0,0,0,64
106,2023-07-10T01:45:00,1.5,南南西,2.5,南西,24.9,100,0,0,0,64
107,2023-07-10T01:46:00,1.4,南南西,2.5,南西,24.9,100,0,0,0,64
108,2023-07-10T01:47:00,1.4,南南西,2.1,南南西,25,100,0,0,0,64
109,2023-07-10T01:48:00,1.4,南南西,2.4,南,25.1,100,0,0,0,64
110,2023-07-10T01:49:00,1.4,南南西,2.4,南,25.2,100,0,0,0,64
111,2023-07-10T01:50:00,1.4,南南西,2.4,南,25.2,100,0,0,0,64
112,2023-07-10T01:51:00,1.4,南南西,2.4,南,25.2,100,0,0,0,64
113,2023-07-10T01:52:00,1.4,南南西,2.4,南,25.2,100,0,0,0,64
114,2023-07-10T01:53:00,1.4,南南西,2.4,南,25.2,100,0,0,0,64
115,2023-07-10T01:54:00,1.4,南南西,2.4,南,25.3,100,0,0,0,64
116,2023-07-10T01:55:00,1.5,南南西,3,南南西,25.4,100,0,0,0,64
117,2023-07-10T01:56:00,1.6,南南西,3,南南西,25.5,100,0,0,0,64
118,2023-07-10T01:57:00,1.5,南南西,3,南南西,25.4,100,0,0,0,64
119,2023-07-10T01:58:00,1.5,南,3,南南西,25.3,100,0,0,0,64
120,2023-07-10T01:59:00,1.6,南,3,南南西,25.4,100,0,0,0,64
121,2023-07-10T02:00:00,1.6,南,3,南南西,25.4,100,0,0,0,64
122,2023-07-10T02:01:00,1.5,南,3,南南西,25.4,100,0,0,0,64
123,2023-07-10T02:02:00,1.5,南,3,南南西,25.3,100,0,0,0,64
124,2023-07-10T02:03:00,1.5,南,3,南南西,25.3,100,0,0,0,64
125,2023-07-10T02:04:00,1.6,南,3,南南西,25.5,100,0,0,0,64
126,2023-07-10T02:05:00,1.5,南,2.9,南南西,25.4,100,0,0,0,64
127,2023-07-10T02:06:00,1.5,南,3.7,南南東,25.3,100,0,0,0,64
128,2023-07-10T02:07:00,1.6,南,3.7,南南東,25.3,100,0,0,0,64
129,2023-07-10T02:08:00,1.6,南,3.7,南南東,25.3,100,0,0,0,64
130,2023-07-10T02:09:00,1.6,南,3.7,南南東,25.3,100,0,0,0,64
131,2023-07-10T02:10:00,1.6,南,3.7,南南東,25.4,100,0,0,0,64
132,2023-07-10T02:11:00,1.6,南,3.7,南南東,25.4,100,0,0,0,64
133,2023-07-10T02:12:00,1.6,南,3.7,南南東,25.4,100,0,0,0,64
134,2023-07-10T02:13:00,1.6,南,3.7,南南東,25.5,100,0,0,0,64
135,2023-07-10T02:14:00,1.6,南,3.7,南南東,25.6,100,0,0,0,64
136,2023-07-10T02:15:00,1.6,南,3.7,南南東,25.5,100,0,0,0,64
137,2023-07-10T02:16:00,1.5,南,3.3,南南東,25.5,100,0,0,0,64
138,2023-07-10T02:17:00,1.5,南南西,2.8,南南東,25.5,100,0,0,0,64
139,2023-07-10T02:18:00,1.5,南南西,2.5,南,25.5,100,0,0,0,64
140,2023-07-10T02:19:00,1.6,南南西,2.9,南西,25.5,100,0,0,0,64
141,2023-07-10T02:20:00,1.7,南西,3.2,西南西,25.5,100,0,0,0,64
142,2023-07-10T02:21:00,1.8,南西,3.2,西南西,25.4,100,0,0,0,64
143,2023-07-10T02:22:00,1.9,南西,3.2,西南西,25.3,100,0,0,0,64
144,2023-07-10T02:23:00,2,南西,3.2,西南西,25.3,100,0,0,0,64
145,2023-07-10T02:24:00,2.1,南西,3.2,西南西,25.2,100,0,0,0,64
146,2023-07-10T02:25:00,2.1,南西,3.2,西南西,25.1,100,0,0,0,64
147,2023-07-10T02:26:00,2.1,南西,3.2,西南西,25.1,100,0,0,0,64
148,2023-07-10T02:27:00,2.2,南西,3.2,西南西,25.2,100,0,0,0,64
149,2023-07-10T02:28:00,2.1,南西,3.2,西南西,25.3,100,0,0,0,64
150,2023-07-10T02:29:00,2.1,南西,3.2,西南西,25.3,100,0,0,0,64
151,2023-07-10T02:30:00,2,南南西,3,南西,25.1,100,0,0,0,64
152,2023-07-10T02:31:00,1.9,南南西,3,南西,25.1,100,0,0,0,64
153,2023-07-10T02:32:00,1.8,南南西,3,南西,25,100,0,0,0,64
154,2023-07-10T02:33:00,1.7,南,2.7,南南西,25,100,0,0,0,64
155,2023-07-10T02:34:00,1.6,南,2.7,南南西,24.9,100,0,0,0,64
156,2023-07-10T02:35:00,1.6,南,2.7,南南西,25,100,0,0,0,64
157,2023-07-10T02:36:00,1.5,南,2.7,南南西,25,100,0,0,0,64
158,2023-07-10T02:37:00,1.4,南,2.4,南南東,25,100,0,0,0,64
159,2023-07-10T02:38:00,1.4,南,2.6,南南西,24.9,100,0,0,0,64
160,2023-07-10T02:39:00,1.4,南,2.6,南南西,24.9,100,0,0,0,64
161,2023-07-10T02:40:00,1.5,南,2.7,南南西,25,100,0,0,0,64
162,2023-07-10T02:41:00,1.5,南,2.7,南南西,25.2,100,0,0,0,64
163,2023-07-10T02:42:00,1.5,南,2.7,南南西,25.2,100,0,0,0,64
164,2023-07-10T02:43:00,1.5,南,2.7,南南西,25.2,100,0,0,0,64
165,2023-07-10T02:44:00,1.5,南,2.7,南南西,25.1,100,0,0,0,64
166,2023-07-10T02:45:00,1.5,南,2.7,南南西,25.1,100,0,0,0,64
167,2023-07-10T02:46:00,1.5,南,2.7,南南西,25.2,100,0,0,0,64
168,2023-07-10T02:47:00,1.5,南,2.7,南南西,25.2,100,0,0,0,64
169,2023-07-10T02:48:00,1.4,南,2.7,南南西,25.3,100,0,0,0,64
170,2023-07-10T02:49:00,1.4,南,2.7,南南西,25.2,100,0,0,0,64
171,2023-07-10T02:50:00,1.3,南,2.5,南南西,25.1,100,0,0,0,64
172,2023-07-10T02:51:00,1.3,南,2.3,南,25,100,0,0,0,64
173,2023-07-10T02:52:00,1.3,南,2.3,南,24.9,100,0,0,0,64
174,2023-07-10T02:53:00,1.2,南,2,南南西,24.9,100,0,0,0,64
175,2023-07-10T02:54:00,1.2,南,2,南南西,24.9,100,0,0,0,64
176,2023-07-10T02:55:00,1.3,南,2.8,南南東,24.9,100,0,0,0,64
177,2023-07-10T02:56:00,1.3,南,2.8,南南東,24.9,100,0,0,0,64
178,2023-07-10T02:57:00,1.2,南南東,2.8,南南東,24.9,100,0,0,0,64
179,2023-07-10T02:58:00,1.2,南南東,2.8,南南東,24.8,100,0,0,0,64
180,2023-07-10T02:59:00,1.2,南南東,2.8,南南東,24.8,100,0,0,0,64
181,2023-07-10T03:00:00,1.1,南,2.8,南南東,24.8,100,0,0,0,64
182,2023-07-10T03:01:00,1.2,南,2.8,南南東,24.8,100,0,0,0,64
183,2023-07-10T03:02:00,1.2,南,2.8,南南東,24.9,100,0,0,0,64
184,2023-07-10T03:03:00,1.3,南南西,2.8,南南東,24.9,100,0,0,0,64
185,2023-07-10T03:04:00,1.4,南南西,2.8,南南東,24.9,100,0,0,0,64
186,2023-07-10T03:05:00,1.4,南南西,2.5,南西,24.8,100,0,0,0,64
187,2023-07-10T03:06:00,1.3,南西,2.5,南西,24.7,100,0,0,0,64
188,2023-07-10T03:07:00,1.3,南西,2.5,南西,24.6,100,0,0,0,64
189,2023-07-10T03:08:00,1.2,西南西,2.5,南西,24.6,100,0,0,0,64
190,2023-07-10T03:09:00,1.2,西南西,2.5,南西,24.7,100,0,0,0,64
191,2023-07-10T03:10:00,1.2,西南西,2.5,南西,24.6,100,0,0,0,64
192,2023-07-10T03:11:00,1,西南西,2.5,南西,24.6,100,0,0,0,64
193,2023-07-10T03:12:00,0.9,西南西,2.5,南西,24.5,100,0,0,0,64
194,2023-07-10T03:13:00,0.8,西南西,2.3,南西,24.6,100,0,0,0,64
195,2023-07-10T03:14:00,0.7,西南西,2,西南西,24.6,100,0,0,0,64
196,2023-07-10T03:15:00,0.7,南西,2,西南西,24.5,100,0,0,0,64
197,2023-07-10T03:16:00,0.7,南西,1.5,南西,24.5,100,0,0,0,64
198,2023-07-10T03:17:00,0.8,南西,1.5,南西,24.5,100,0,0,0,64
199,2023-07-10T03:18:00,0.9,南西,1.6,南西,24.6,100,0,0,0,64
200,2023-07-10T03:19:00,0.9,南西,1.6,南西,24.7,100,0,0,0,64
201,2023-07-10T03:20:00,1,南西,1.6,南西,24.6,100,0,0,0,64
202,2023-07-10T03:21:00,1.1,南西,1.6,南西,24.6,100,0,0,0,64
203,2023-07-10T03:22:00,1.1,南西,1.6,南西,24.6,100,0,0,0,64
204,2023-07-10T03:23:00,1.1,南西,1.6,南西,24.6,100,0,0,0,64
205,2023-07-10T03:24:00,1.1,南西,1.6,南西,24.6,100,0,0,0,64
206,2023-07-10T03:25:00,1.1,南西,1.6,南西,24.5,100,0,0,0,64
207,2023-07-10T03:26:00,1,南西,1.6,南西,24.5,100,0,0,0,64
208,2023-07-10T03:27:00,0.9,南西,1.6,南西,24.5,100,0,0,0,64
209,2023-07-10T03:28:00,0.8,南南西,1.6,西南西,24.5,100,0,0,0,64
210,2023-07-10T03:29:00,0.7,南南西,1.6,西南西,24.5,100,0,0,0,64
211,2023-07-10T03:30:00,0.6,南,1.6,西南西,24.5,100,0,0,0,64
212,2023-07-10T03:31:00,0.5,南,1.6,西南西,24.5,100,0,0,0,64
213,2023-07-10T03:32:00,0.4,南,1.6,西南西,24.5,100,0,0,0,64
214,2023-07-10T03:33:00,0.3,南,1.6,西南西,24.5,100,0,0,0,64
215,2023-07-10T03:34:00,0.2,静穏,1,西南西,24.6,100,0,0,0,64
216,2023-07-10T03:35:00,0.2,静穏,0.7,西南西,24.6,100,0,0,0,64
217,2023-07-10T03:36:00,0.3,南南西,0.8,西南西,24.6,100,0,0,0,64
218,2023-07-10T03:37:00,0.3,南西,1.4,南西,24.6,100,0,0,0,64
219,2023-07-10T03:38:00,0.4,西南西,1.4,南西,24.6,100,0,0,0,64
220,2023-07-10T03:39:00,0.4,西南西,1.4,南西,24.5,100,0,0,0,64
221,2023-07-10T03:40:00,0.4,西南西,1.4,南西,24.6,100,0,0,0,64
222,2023-07-10T03:41:00,0.5,西,1.4,南西,24.7,100,0,0,0,64
223,2023-07-10T03:42:00,0.5,西,1.4,南西,24.6,100,0,0,0,64
224,2023-07-10T03:43:00,0.4,西,1.4,南西,24.6,100,0,0,0,64
225,2023-07-10T03:44:00,0.4,西,1.4,南西,24.6,100,0,0,0,64
226,2023-07-10T03:45:00,0.4,西南西,1.4,南西,24.6,100,0,0,0,64
227,2023-07-10T03:46:00,0.5,西南西,2.1,東,24.6,100,0,0,0,64
228,2023-07-10T03:47:00,0.6,西南西,2.1,東,24.6,100,0,0,0,64
229,2023-07-10T03:48:00,0.7,南西,2.2,東南東,24.6,100,0,0,0,64
230,2023-07-10T03:49:00,0.8,南,2.2,東南東,24.6,100,0,0,0,64
231,2023-07-10T03:50:00,0.8,南南東,2.2,東南東,24.6,100,0,0,0,64
232,2023-07-10T03:51:00,0.9,南東,2.2,東南東,24.6,100,0,0,0,64
233,2023-07-10T03:52:00,1,南東,2.2,東南東,24.6,100,0,0,0,64
234,2023-07-10T03:53:00,1.1,南東,2.2,東南東,24.6,100,0,0,0,64
235,2023-07-10T03:54:00,1.2,南東,2.2,東南東,24.7,100,0,0,0,64
236,2023-07-10T03:55:00,1.3,南東,2.2,東南東,24.7,100,0,0,0,64
237,2023-07-10T03:56:00,1.3,南東,2.2,東南東,24.7,100,0,0,0,64
238,2023-07-10T03:57:00,1.2,南東,2.2,東南東,24.8,100,0,0,0,64
239,2023-07-10T03:58:00,1.2,南南東,2.1,南東,24.8,100,0,0,0,64
240,2023-07-10T03:59:00,1.1,南南東,2.1,南東,24.8,100,0,0,0,64
241,2023-07-10T04:00:00,1.1,南南東,2.1,南東,24.8,100,0,0,0,64
242,2023-07-10T04:01:00,1,南南東,2.1,南東,24.8,100,0,0,0,64
243,2023-07-10T04:02:00,0.9,南南東,2.1,南東,24.8,100,0,0,0,64
244,2023-07-10T04:03:00,0.9,南東,2.1,南東,24.8,100,0,0,0,64
245,2023-07-10T04:04:00,0.8,南東,2.1,南東,24.8,100,0,0,0,64
246,2023-07-10T04:05:00,0.7,南東,2.1,南東,24.7,100,0,0,0,64
247,2023-07-10T04:06:00,0.6,南東,1.6,南南東,24.6,100,0,0,0,64
248,2023-07-10T04:07:00,0.6,南東,1.4,南南東,24.7,100,0,0,0,64
249,2023-07-10T04:08:00,0.6,南南東,1.4,南南東,24.6,100,0,0,0,64
250,2023-07-10T04:09:00,0.5,南,1.1,西,24.7,100,0,0,0,64
251,2023-07-10T04:10:00,0.5,南西,1.1,西,24.6,100,0,0,0,64
252,2023-07-10T04:11:00,0.6,西南西,1.4,西,24.6,100,0,0,0,64
253,2023-07-10T04:12:00,0.7,西,1.6,西,24.6,100,0,0,0,64
254,2023-07-10T04:13:00,0.8,西,1.6,西,24.6,100,0,0,0,64
255,2023-07-10T04:14:00,0.9,西,2.2,西南西,24.6,100,0,0,0,64
256,2023-07-10T04:15:00,1,西,2.2,西南西,24.6,100,0,0,0,64
257,2023-07-10T04:16:00,1,西,2.2,西南西,24.6,100,0,0,0,64
258,2023-07-10T04:17:00,1,西,2.2,西南西,24.5,100,0,0,0,64
259,2023-07-10T04:18:00,1.1,西,2.2,西南西,24.6,100,0,0,0,64
260,2023-07-10T04:19:00,1.1,西,2.2,西南西,24.6,100,0,0,0,64
261,2023-07-10T04:20:00,1.2,西,2.2,西南西,24.5,100,0,0,0,64
262,2023-07-10T04:21:00,1.2,西,2.2,西南西,24.5,100,0,0,0,64
263,2023-07-10T04:22:00,1.2,西南西,2.2,西南西,24.5,100,0,0,0,64
264,2023-07-10T04:23:00,1.3,西南西,2.4,南南西,24.5,100,0,0,0,64
265,2023-07-10T04:24:00,1.4,西南西,3.1,南南西,24.5,100,0,0,0,64
266,2023-07-10T04:25:00,1.5,南西,3.1,南南西,24.7,100,0,0,0,64
267,2023-07-10T04:26:00,1.6,南西,3.3,南南西,24.7,100,0,0,0,64
268,2023-07-10T04:27:00,1.8,南西,3.6,南,24.8,100,0,0,0,64
269,2023-07-10T04:28:00,1.9,南南西,3.9,南南西,24.8,100,0,0,0,64
270,2023-07-10T04:29:00,2.1,南南西,4.3,南,24.9,100,0,0,0,64
271,2023-07-10T04:30:00,2.2,南南西,4.3,南,24.9,100,0,0,0,64
272,2023-07-10T04:31:00,2.3,南南西,4.3,南,24.9,100,0,0,0,64
273,2023-07-10T04:32:00,2.4,南南西,4.3,南,24.9,100,0,0,0,64
274,2023-07-10T04:33:00,2.4,南南西,4.3,南,24.9,100,0,0,0,64
275,2023-07-10T04:34:00,2.4,南南西,4.3,南,24.9,100,0,0,0,64
276,2023-07-10T04:35:00,2.4,南南西,4.3,南,24.9,100,0,0,0,64
277,2023-07-10T04:36:00,2.4,南南西,4.3,南,24.9,100,0,0,0,64
278,2023-07-10T04:37:00,2.4,南南西,4.3,南,24.9,100,0,0,0,64
279,2023-07-10T04:38:00,2.3,南南西,4.3,南,24.9,100,0,0,0,64
280,2023-07-10T04:39:00,2.2,南西,3.8,南南西,24.9,100,0,0,0,64
281,2023-07-10T04:40:00,2.1,南西,3.6,南南西,24.9,100,0,0,0,64
282,2023-07-10T04:41:00,2,南西,3.6,南南西,24.9,100,0,0,0,64
283,2023-07-10T04:42:00,1.9,南西,3.5,南西,24.8,100,0,0,0,64
284,2023-07-10T04:43:00,1.8,南西,3.5,南西,24.7,100,0,0,0,64
285,2023-07-10T04:44:00,1.7,西南西,3.5,南西,24.7,100,0,0,0,64
286,2023-07-10T04:45:00,1.5,西南西,3.2,南南西,24.7,100,0,0,0,64
287,2023-07-10T04:46:00,1.4,西南西,3.1,南南西,24.7,100,0,0,0,64
288,2023-07-10T04:47:00,1.3,西,2.5,西南西,24.7,100,0,0,0,64
289,2023-07-10T04:48:00,1.2,西,2.5,西南西,24.7,100,0,0,0,64
290,2023-07-10T04:49:00,1.1,西,2,西,24.7,100,0,0,0,64
291,2023-07-10T04:50:00,1,西,2,西,24.7,100,0,0,0,64
292,2023-07-10T04:51:00,0.9,西,2,西,24.8,100,0,0,0,64
293,2023-07-10T04:52:00,0.9,西,2,西,24.9,100,0,0,0,64
294,2023-07-10T04:53:00,0.9,西北西,2,西,24.9,100,0,0,0,64
295,2023-07-10T04:54:00,0.9,西北西,2,西,24.9,100,0,0,0,64
296,2023-07-10T04:55:00,0.9,西北西,1.6,北西,25.1,100,0,0,0,64
297,2023-07-10T04:56:00,0.9,西北西,1.6,北西,25.1,100,0,0,0,64
298,2023-07-10T04:57:00,0.9,西,1.6,北西,25.2,100,0,0,0,64
299,2023-07-10T04:58:00,0.9,西,1.6,北西,25.4,100,0,0,0,64
300,2023-07-10T04:59:00,0.8,西,1.6,北西,25.5,100,0,0,0,64
301,2023-07-10T05:00:00,0.7,西,1.6,北西,25.3,100,0,0,0,64
302,2023-07-10T05:01:00,0.7,西北西,1.6,北西,25.2,100,0,0,0,64
303,2023-07-10T05:02:00,0.7,西北西,1.6,北西,25.1,100,0,0,0,64
304,2023-07-10T05:03:00,0.6,西,1.3,西北西,25.1,100,0,0,0,64
305,2023-07-10T05:04:00,0.6,西,1.2,西,25,100,0,0,0,64
306,2023-07-10T05:05:00,0.6,西,1.1,西北西,24.9,100,0,0,0,64
307,2023-07-10T05:06:00,0.5,西,1,南西,25,100,0,0,0,64
308,2023-07-10T05:07:00,0.5,西南西,1,南西,24.9,100,0,0,0,64
309,2023-07-10T05:08:00,0.5,西南西,1,南西,24.9,100,0,0,0,64
310,2023-07-10T05:09:00,0.5,西南西,1,南西,24.9,100,0,0,0,64
311,2023-07-10T05:10:00,0.6,南西,1,南西,24.9,100,0,0,0,64
312,2023-07-10T05:11:00,0.6,南南西,1,南西,24.9,100,0,0,0,64
313,2023-07-10T05:12:00,0.6,南南西,1.1,南東,24.9,100,0,0,0,64
314,2023-07-10T05:13:00,0.6,南,1.1,南東,24.9,100,0,0,0,64
315,2023-07-10T05:14:00,0.6,南,1.1,南東,24.9,100,0,0,0,64
316,2023-07-10T05:15:00,0.5,南南東,1.1,南東,24.9,100,0,0,0,64
317,2023-07-10T05:16:00,0.5,南南東,1.1,南東,24.9,100,0,0,0,64
318,2023-07-10T05:17:00,0.5,南南東,1.1,南東,24.9,100,0,0,0,64
319,2023-07-10T05:18:00,0.5,南東,1.1,南東,24.9,100,0,0,0,64
320,2023-07-10T05:19:00,0.5,南東,1.1,南東,24.9,100,0,0,0,64
321,2023-07-10T05:20:00,0.5,南東,1.1,南東,24.8,100,0,0,0,64
322,2023-07-10T05:21:00,0.5,南東,1.1,南東,24.8,100,0,0,0,64
323,2023-07-10T05:22:00,0.5,南東,1,南東,24.8,100,0,0,0,64
324,2023-07-10T05:23:00,0.5,南東,1,南東,24.8,100,0,0,0,64
325,2023-07-10T05:24:00,0.5,南南東,1,南東,24.8,100,0,0,0,64
326,2023-07-10T05:25:00,0.4,南南東,1,南東,24.8,100,0,0,0,64
327,2023-07-10T05:26:00,0.4,南南東,1,南東,24.7,100,0,0,0,64
328,2023-07-10T05:27:00,0.4,南南東,1,南東,24.8,100,0,0,0,64
329,2023-07-10T05:28:00,0.4,南,0.9,南東,24.8,100,0,0,0,64
330,2023-07-10T05:29:00,0.4,南,1.1,南西,24.8,100,0,0,0,64
331,2023-07-10T05:30:00,0.5,南,1.3,南西,24.8,100,0,0,0,64
332,2023-07-10T05:31:00,0.6,南南西,1.5,南西,24.8,100,0,0,0,64
333,2023-07-10T05:32:00,0.7,南南西,1.5,南西,24.7,100,0,0,0,64
334,2023-07-10T05:33:00,0.7,南西,1.5,南西,24.7,100,0,0,0,64
335,2023-07-10T05:34:00,0.8,南西,1.5,南西,24.8,100,0,0,0,64
336,2023-07-10T05:35:00,0.9,南西,1.5,南西,24.8,100,0,0,0,64
337,2023-07-10T05:36:00,1,南西,1.5,南西,24.8,100,0,0,0,64
338,2023-07-10T05:37:00,1.1,南西,1.6,南南西,24.9,100,0,0,0,64
339,2023-07-10T05:38:00,1.2,南西,1.8,南南西,24.9,100,0,0,0,64
340,2023-07-10T05:39:00,1.2,南南西,2.1,南,24.9,100,0,0,0,64
341,2023-07-10T05:40:00,1.2,南南西,2.1,南,25,100,0,0,0,64
342,2023-07-10T05:41:00,1.3,南南西,2.5,南南西,25.1,100,0,0,0,64
343,2023-07-10T05:42:00,1.4,南南西,2.5,南南西,25.1,100,0,0,0,64
344,2023-07-10T05:43:00,1.4,南南西,2.5,南南西,25.2,100,0,0,0,64
345,2023-07-10T05:44:00,1.5,南南西,2.5,南南西,25.3,100,0,0,0,64
346,2023-07-10T05:45:00,1.6,南南西,2.8,南南西,25.3,100,0,0,0,64
347,2023-07-10T05:46:00,1.7,南南西,2.8,南南西,25.3,100,0,0,0,64
348,2023-07-10T05:47:00,1.7,南南西,2.8,南南西,25.3,100,0,0,0,64
349,2023-07-10T05:48:00,1.8,南南西,2.8,南南西,25.2,100,0,0,0,64
350,2023-07-10T05:49:00,1.8,南南西,2.8,南南西,25.2,100,0,0,0,64
351,2023-07-10T05:50:00,1.8,南西,2.8,南南西,25.2,100,0,0,0,64
352,2023-07-10T05:51:00,1.8,南西,2.8,南南西,25.2,100,0,0,0,64
353,2023-07-10T05:52:00,1.8,南西,2.8,南南西,25.3,100,0,0,0,64
354,2023-07-10T05:53:00,1.8,南西,2.8,南南西,25.3,100,0,0,0,64
355,2023-07-10T05:54:00,1.7,南西,2.8,南南西,25.4,100,0,0,0,64
356,2023-07-10T05:55:00,1.6,南西,2.6,南西,25.4,100,0,0,0,64
357,2023-07-10T05:56:00,1.6,南西,2.6,南西,25.4,100,0,0,0,64
358,2023-07-10T05:57:00,1.6,南西,2.6,南西,25.5,100,0,0,0,64
359,2023-07-10T05:58:00,1.6,南西,2.6,南西,25.6,100,0,0,0,64
360,2023-07-10T05:59:00,1.5,南西,2.6,南西,25.6,100,0,0,0,64
361,2023-07-10T06:00:00,1.4,南西,2.6,南西,25.7,100,0,0,0,64
362,2023-07-10T06:01:00,1.4,南西,2.6,南西,25.7,100,0,0,0,64
363,2023-07-10T06:02:00,1.3,南西,2.6,南西,25.8,100,0,0,0,64
364,2023-07-10T06:03:00,1.2,南西,2.5,南,25.8,100,0,0,0,64
365,2023-07-10T06:04:00,1.2,南西,2.5,南,25.8,100,0,0,0,64
366,2023-07-10T06:05:00,1.2,南西,2.5,南,25.9,100,0,0,0,64
367,2023-07-10T06:06:00,1.1,南西,2.5,南,26,100,0,0,0,64
368,2023-07-10T06:07:00,1.1,南西,2.1,南南西,26.1,100,0,0,0,64
369,2023-07-10T06:08:00,1,南西,1.7,南東,26.1,100,0,0,0,64
370,2023-07-10T06:09:00,1,南西,1.7,南,26.1,100,0,0,0,64
371,2023-07-10T06:10:00,1,南西,2.2,南南西,26.1,100,0,0,0,64
372,2023-07-10T06:11:00,1.1,南西,2.2,南南西,26.2,100,0,0,0,64
373,2023-07-10T06:12:00,1.1,南南西,2.2,南南西,26.2,100,0,0,0,64
374,2023-07-10T06:13:00,1.1,南南西,2.2,南南西,26.3,100,0,0,0,64
375,2023-07-10T06:14:00,1.1,南南西,2.2,南南西,26.4,100,0,0,0,64
376,2023-07-10T06:15:00,1.1,南南西,2.2,南南西,26.5,100,0,0,0,64
377,2023-07-10T06:16:00,1.1,南,2.2,南南西,26.5,100,0,0,0,64
378,2023-07-10T06:17:00,1.2,南,3.4,南南東,26.5,100,0,0,0,64
379,2023-07-10T06:18:00,1.3,南,3.4,南南東,26.5,100,0,0,0,64
380,2023-07-10T06:19:00,1.4,南,4.4,南東,26.7,99.7,0,0,0,64
381,2023-07-10T06:20:00,1.5,南,4.4,南東,26.7,99.2,0,0,0,64
382,2023-07-10T06:21:00,1.6,南南東,4.4,南東,26.7,98.8,0,0,0,64
383,2023-07-10T06:22:00,1.7,南南東,4.4,南東,26.7,98.7,0,0,0,64
384,2023-07-10T06:23:00,1.7,南南東,4.4,南東,26.7,98.6,0,0,0,64
385,2023-07-10T06:24:00,1.8,南南東,4.4,南東,26.8,98.5,0,0,0,64
386,2023-07-10T06:25:00,1.9,南南東,4.4,南東,26.8,98.5,0,0,0,64
387,2023-07-10T06:26:00,1.9,南南東,4.4,南東,26.9,98.3,0,0,0,64
388,2023-07-10T06:27:00,2,南南東,4.4,南東,26.9,98.2,0,0,0,64
389,2023-07-10T06:28:00,2.1,南,4.4,南東,27,98,0,0,0,64
390,2023-07-10T06:29:00,2,南,4.1,南南東,27,97.9,0,0,0,64
391,2023-07-10T06:30:00,2,南南東,4.1,南南東,27,97.9,0,0,0,64
392,2023-07-10T06:31:00,2,南南東,3.8,南南東,27.1,98,0,0,0,64
393,2023-07-10T06:32:00,2,南,3.8,南南東,27.1,98,0,0,0,64
394,2023-07-10T06:33:00,2.2,南,4.9,南,27.1,97.9,0,0,0,64
395,2023-07-10T06:34:00,2.2,南,4.9,南,27.1,97.6,0,0,0,64
396,2023-07-10T06:35:00,2.3,南,4.9,南,27.2,97.5,0,0,0,64
397,2023-07-10T06:36:00,2.5,南,4.9,南,27.2,97.5,0,0,0,64
398,2023-07-10T06:37:00,2.5,南,4.9,南,27.2,97.2,0,0,0,64
399,2023-07-10T06:38:00,2.4,南,4.9,南,27.3,97.4,0,0,0,64
400,2023-07-10T06:39:00,2.5,南,4.9,南,27.4,97.5,0,0,0,64
401,2023-07-10T06:40:00,2.5,南,4.9,南,27.3,97.2,0,0,0,64
402,2023-07-10T06:41:00,2.6,南,4.9,南,27.3,96.9,0,0,0,64
403,2023-07-10T06:42:00,2.6,南,5.7,南南東,27.3,96.8,0,0,0,64
404,2023-07-10T06:43:00,2.6,南,5.7,南南東,27.4,96.8,0,0,0,64
405,2023-07-10T06:44:00,2.6,南南東,5.7,南南東,27.3,96.8,0,0,0,64
406,2023-07-10T06:45:00,2.6,南南東,6.1,南南東,27.3,96.8,0,0,0,64
407,2023-07-10T06:46:00,2.5,南南東,6.1,南南東,27.4,96.6,0,0,0,64
408,2023-07-10T06:47:00,2.5,南南東,6.1,南南東,27.4,96.3,0,0,0,64
409,2023-07-10T06:48:00,2.5,南南東,6.1,南南東,27.5,96.2,0,0,0,64
410,2023-07-10T06:49:00,2.5,南南東,6.1,南南東,27.5,96.1,0,0,0,64
411,2023-07-10T06:50:00,2.5,南南東,7.1,南南東,27.6,96,0,0,0,64
412,2023-07-10T06:51:00,2.6,南南東,7.1,南南東,27.7,96,0,0,0,64
413,2023-07-10T06:52:00,2.6,南南東,7.1,南南東,27.6,94.7,0,0,0,64
414,2023-07-10T06:53:00,2.5,南南東,7.1,南南東,27.6,94.7,0,0,0,64
415,2023-07-10T06:54:00,2.4,南南東,7.1,南南東,27.7,95.3,0,0,0,64
416,2023-07-10T06:55:00,2.4,南南東,7.1,南南東,27.7,95.4,0,0,0,64
417,2023-07-10T06:56:00,2.4,南南東,7.1,南南東,27.7,95.2,0,0,0,64
418,2023-07-10T06:57:00,2.4,南南東,7.1,南南東,27.7,95.4,0,0,0,64
419,2023-07-10T06:58:00,2.5,南南東,7.1,南南東,27.9,95.6,0,0,0,64
420,2023-07-10T06:59:00,2.4,南南東,7.1,南南東,27.8,95,0,0,0,64
421,2023-07-10T07:00:00,2.2,南南東,5.6,南南東,28,94.4,0,0,0,64
422,2023-07-10T07:01:00,2,南南東,5.4,南南東,28,93.8,0,0,0,64
423,2023-07-10T07:02:00,2.1,南南東,5.4,南南東,27.9,94.3,0,0,0,64
424,2023-07-10T07:03:00,2.1,南南東,5.4,南南東,27.9,94.4,0,0,0,64
425,2023-07-10T07:04:00,2.1,南南東,5.4,南南東,27.9,93.6,0,0,0,64
426,2023-07-10T07:05:00,2,南南東,5.4,南南東,28.1,94.2,0,0,0,64
427,2023-07-10T07:06:00,2,南南東,5.4,南南東,28.3,93.6,0,0,0,64
428,2023-07-10T07:07:00,1.9,南南東,4.5,南南東,28.4,92.8,0,0,0,64